Time,TemperatureF,DewpointF,PressureIn,WindDirection,WindDirectionDegrees,WindSpeedMPH,WindSpeedGustMPH,Humidity,HourlyPrecipIn,Conditions,Clouds,dailyrainin,SoftwareType,DateUTC
2013-04-01 00:03:00,63.0,57.0,29.91,SSW,210,2.0,6.0,82,0.00,,,0.02,,2013-04-01 04:03:00,
2013-04-01 00:14:00,63.0,57.0,29.91,SSW,210,2.0,6.0,82,0.00,,,0.02,,2013-04-01 04:14:00,
2013-04-01 00:24:00,63.0,58.0,29.91,SW,223,2.0,3.0,83,0.00,,,0.02,,2013-04-01 04:24:00,
2013-04-01 00:33:00,63.0,58.0,29.91,SW,219,1.0,3.0,84,0.00,,,0.02,,2013-04-01 04:33:00,
2013-04-01 00:43:00,63.0,58.0,29.91,SW,219,1.0,3.0,84,0.00,,,0.02,,2013-04-01 04:43:00,
2013-04-01 00:53:00,63.0,58.0,29.92,WSW,245,1.0,3.0,84,0.00,,,0.02,,2013-04-01 04:53:00,
2013-04-01 01:03:00,63.0,58.0,29.92,WSW,245,1.0,3.0,84,0.00,,,0.02,,2013-04-01 05:03:00,
2013-04-01 01:13:00,63.0,58.0,29.92,WSW,245,1.0,3.0,84,0.00,,,0.02,,2013-04-01 05:13:00,
2013-04-01 01:22:00,62.0,57.0,29.91,SW,228,2.0,3.0,85,0.00,,,0.02,,2013-04-01 05:22:00,
2013-04-01 01:32:00,63.0,58.0,29.91,SW,227,1.0,5.0,85,0.00,,,0.02,,2013-04-01 05:32:00,
2013-04-01 01:43:00,63.0,58.0,29.91,SW,227,1.0,5.0,85,0.00,,,0.02,,2013-04-01 05:43:00,
2013-04-01 01:53:00,63.0,58.0,29.90,SW,235,1.0,5.0,85,0.00,,,0.02,,2013-04-01 05:53:00,
2013-04-01 02:02:00,63.0,58.0,29.90,SW,224,2.0,3.0,84,0.00,,,0.02,,2013-04-01 06:02:00,
2013-04-01 02:13:00,63.0,58.0,29.90,SW,224,2.0,3.0,84,0.00,,,0.02,,2013-04-01 06:13:00,
2013-04-01 02:23:00,63.0,58.0,29.90,SW,224,1.0,5.0,84,0.00,,,0.02,,2013-04-01 06:23:00,
2013-04-01 02:33:00,63.0,58.0,29.89,SSW,207,1.0,3.0,84,0.00,,,0.02,,2013-04-01 06:33:00,
2013-04-01 02:43:00,63.0,58.0,29.89,SSW,207,1.0,3.0,84,0.00,,,0.02,,2013-04-01 06:43:00,
2013-04-01 02:53:00,63.0,57.0,29.88,SW,226,2.0,3.0,82,0.00,,,0.02,,2013-04-01 06:53:00,
2013-04-01 03:03:00,63.0,57.0,29.88,SW,221,2.0,3.0,81,0.00,,,0.02,,2013-04-01 07:03:00,
2013-04-01 03:13:00,63.0,57.0,29.88,SW,221,2.0,3.0,81,0.00,,,0.02,,2013-04-01 07:13:00,
2013-04-01 03:22:00,63.0,57.0,29.88,SW,236,2.0,3.0,80,0.00,,,0.02,,2013-04-01 07:22:00,
2013-04-01 03:32:00,63.0,57.0,29.88,SW,219,2.0,3.0,80,0.00,,,0.02,,2013-04-01 07:32:00,
2013-04-01 03:42:00,63.0,57.0,29.88,SW,219,2.0,3.0,80,0.00,,,0.02,,2013-04-01 07:42:00,
2013-04-01 03:53:00,63.0,57.0,29.88,SW,236,2.0,5.0,80,0.00,,,0.02,,2013-04-01 07:53:00,
2013-04-01 04:03:00,63.0,57.0,29.87,SW,230,1.0,3.0,80,0.00,,,0.02,,2013-04-01 08:03:00,
2013-04-01 04:12:00,63.0,57.0,29.87,SW,230,1.0,3.0,80,0.00,,,0.02,,2013-04-01 08:12:00,
2013-04-01 04:22:00,63.0,57.0,29.86,SW,232,2.0,3.0,81,0.00,,,0.02,,2013-04-01 08:22:00,
2013-04-01 04:32:00,63.0,57.0,29.87,SW,222,2.0,3.0,81,0.00,,,0.02,,2013-04-01 08:32:00,
2013-04-01 04:43:00,63.0,57.0,29.87,SW,222,2.0,3.0,81,0.00,,,0.02,,2013-04-01 08:43:00,
2013-04-01 04:53:00,63.0,57.0,29.86,WSW,237,0.0,2.0,82,0.00,,,0.02,,2013-04-01 08:53:00,
2013-04-01 05:02:00,63.0,57.0,29.87,WSW,245,1.0,3.0,82,0.00,,,0.02,,2013-04-01 09:02:00,
2013-04-01 05:12:00,63.0,57.0,29.87,WSW,245,1.0,3.0,82,0.00,,,0.02,,2013-04-01 09:12:00,
2013-04-01 05:23:00,63.0,57.0,29.87,SW,227,1.0,3.0,81,0.00,,,0.02,,2013-04-01 09:23:00,
2013-04-01 05:33:00,63.0,57.0,29.87,SW,234,1.0,3.0,82,0.00,,,0.02,,2013-04-01 09:33:00,
2013-04-01 05:43:00,63.0,57.0,29.87,SW,234,1.0,3.0,82,0.00,,,0.02,,2013-04-01 09:43:00,
2013-04-01 05:53:00,63.0,57.0,29.88,SW,221,1.0,3.0,82,0.00,,,0.02,,2013-04-01 09:53:00,
2013-04-01 06:03:00,63.0,58.0,29.87,SW,230,1.0,3.0,83,0.00,,,0.02,,2013-04-01 10:03:00,
2013-04-01 06:13:00,63.0,58.0,29.87,SW,230,1.0,3.0,83,0.00,,,0.02,,2013-04-01 10:13:00,
2013-04-01 06:23:00,62.0,57.0,29.87,SW,224,0.0,2.0,83,0.00,,,0.02,,2013-04-01 10:23:00,
2013-04-01 06:33:00,62.0,57.0,29.87,SW,225,1.0,2.0,84,0.00,,,0.02,,2013-04-01 10:33:00,
2013-04-01 06:42:00,62.0,57.0,29.87,SW,225,1.0,2.0,84,0.00,,,0.02,,2013-04-01 10:42:00,
2013-04-01 06:53:00,62.0,57.0,29.88,SW,225,2.0,3.0,84,0.00,,,0.02,,2013-04-01 10:53:00,
2013-04-01 07:03:00,62.0,57.0,29.88,West,279,1.0,3.0,84,0.00,,,0.02,,2013-04-01 11:03:00,
2013-04-01 07:13:00,62.0,57.0,29.88,West,279,1.0,3.0,84,0.00,,,0.02,,2013-04-01 11:13:00,
2013-04-01 07:23:00,62.0,58.0,29.88,West,260,1.0,3.0,87,0.00,,,0.02,,2013-04-01 11:23:00,
2013-04-01 07:33:00,62.0,59.0,29.88,WSW,251,0.0,2.0,89,0.00,,,0.02,,2013-04-01 11:33:00,
2013-04-01 07:43:00,62.0,59.0,29.88,WSW,251,0.0,2.0,89,0.00,,,0.02,,2013-04-01 11:43:00,
2013-04-01 07:53:00,61.0,58.0,29.89,WSW,251,0.0,0.0,91,0.01,,,0.03,,2013-04-01 11:53:00,
2013-04-01 08:03:00,61.0,59.0,29.90,WSW,251,0.0,1.0,92,0.01,,,0.03,,2013-04-01 12:03:00,
2013-04-01 08:12:00,61.0,59.0,29.90,WSW,251,0.0,1.0,92,0.01,,,0.03,,2013-04-01 12:12:00,
2013-04-01 08:23:00,61.0,59.0,29.90,WSW,251,0.0,1.0,94,0.01,,,0.03,,2013-04-01 12:23:00,
2013-04-01 08:32:00,61.0,59.0,29.91,WSW,251,0.0,1.0,94,0.01,,,0.03,,2013-04-01 12:32:00,
2013-04-01 08:42:00,61.0,59.0,29.91,WSW,251,0.0,1.0,94,0.01,,,0.03,,2013-04-01 12:42:00,
2013-04-01 08:53:00,61.0,59.0,29.92,SW,218,1.0,2.0,94,0.00,,,0.03,,2013-04-01 12:53:00,
2013-04-01 09:03:00,62.0,60.0,29.91,SSW,213,2.0,3.0,93,0.00,,,0.03,,2013-04-01 13:03:00,
2013-04-01 09:12:00,62.0,60.0,29.91,SSW,213,2.0,3.0,93,0.00,,,0.03,,2013-04-01 13:12:00,
2013-04-01 09:22:00,62.0,60.0,29.91,SW,225,1.0,3.0,92,0.00,,,0.02,,2013-04-01 13:22:00,
2013-04-01 09:32:00,63.0,61.0,29.92,SW,226,1.0,2.0,92,0.00,,,0.01,,2013-04-01 13:32:00,
2013-04-01 09:42:00,63.0,61.0,29.92,SW,226,1.0,2.0,92,0.00,,,0.01,,2013-04-01 13:42:00,
2013-04-01 09:53:00,64.0,61.0,29.93,SW,215,1.0,3.0,89,0.00,,,0.01,,2013-04-01 13:53:00,
2013-04-01 10:04:00,64.0,61.0,29.92,SSW,197,2.0,3.0,90,0.00,,,0.01,,2013-04-01 14:04:00,
2013-04-01 10:13:00,64.0,61.0,29.92,SSW,197,2.0,3.0,90,0.00,,,0.01,,2013-04-01 14:13:00,
2013-04-01 10:23:00,63.0,61.0,29.92,WSW,244,1.0,3.0,92,0.00,,,0.01,,2013-04-01 14:23:00,
2013-04-01 10:33:00,64.0,62.0,29.91,SSW,201,0.0,3.0,92,0.00,,,0.01,,2013-04-01 14:33:00,
2013-04-01 10:42:00,64.0,62.0,29.91,SSW,201,0.0,3.0,92,0.00,,,0.01,,2013-04-01 14:42:00,
2013-04-01 10:53:00,66.0,63.0,29.90,SW,232,2.0,5.0,90,0.00,,,0.01,,2013-04-01 14:53:00,
2013-04-01 11:03:00,67.0,63.0,29.90,SW,232,1.0,3.0,88,0.00,,,0.01,,2013-04-01 15:03:00,
2013-04-01 11:13:00,67.0,63.0,29.90,SW,232,1.0,3.0,88,0.00,,,0.01,,2013-04-01 15:13:00,
2013-04-01 11:23:00,68.0,63.0,29.90,WSW,243,2.0,5.0,84,0.00,,,0.01,,2013-04-01 15:23:00,
2013-04-01 11:34:00,68.0,63.0,29.91,SW,235,2.0,7.0,84,0.00,,,0.01,,2013-04-01 15:34:00,
2013-04-01 11:43:00,68.0,63.0,29.91,SW,235,2.0,7.0,84,0.00,,,0.01,,2013-04-01 15:43:00,
2013-04-01 11:54:00,68.0,63.0,29.91,SW,230,3.0,6.0,83,0.00,,,0.01,,2013-04-01 15:54:00,
2013-04-01 12:03:00,68.0,63.0,29.91,SW,229,3.0,6.0,83,0.00,,,0.01,,2013-04-01 16:03:00,
2013-04-01 12:13:00,68.0,63.0,29.91,SW,229,3.0,6.0,83,0.00,,,0.01,,2013-04-01 16:13:00,
2013-04-01 12:23:00,70.0,63.0,29.91,WSW,257,2.0,6.0,78,0.00,,,0.01,,2013-04-01 16:23:00,
2013-04-01 12:43:00,71.0,63.0,29.90,SW,236,2.0,5.0,76,0.00,,,0.01,,2013-04-01 16:43:00,
2013-04-01 12:53:00,72.0,64.0,29.90,West,263,2.0,3.0,75,0.00,,,0.01,,2013-04-01 16:53:00,
2013-04-01 13:03:00,72.0,64.0,29.90,West,263,2.0,3.0,75,0.00,,,0.01,,2013-04-01 17:03:00,
2013-04-01 13:13:00,72.0,64.0,29.90,West,263,2.0,3.0,75,0.00,,,0.01,,2013-04-01 17:13:00,
2013-04-01 13:23:00,73.0,61.0,29.89,West,262,2.0,5.0,66,0.00,,,0.01,,2013-04-01 17:23:00,
2013-04-01 13:32:00,73.0,61.0,29.89,West,262,2.0,5.0,66,0.00,,,0.01,,2013-04-01 17:32:00,
2013-04-01 13:42:00,73.0,61.0,29.89,West,262,2.0,5.0,66,0.00,,,0.01,,2013-04-01 17:42:00,
2013-04-01 13:53:00,73.0,60.0,29.88,NNW,336,1.0,3.0,64,0.00,,,0.01,,2013-04-01 17:53:00,
2013-04-01 14:03:00,73.0,61.0,29.88,WNW,286,0.0,5.0,67,0.00,,,0.01,,2013-04-01 18:03:00,
2013-04-01 14:12:00,73.0,61.0,29.88,WNW,286,0.0,5.0,67,0.00,,,0.01,,2013-04-01 18:12:00,
2013-04-01 14:22:00,74.0,61.0,29.87,NW,307,1.0,3.0,65,0.00,,,0.01,,2013-04-01 18:22:00,
2013-04-01 14:33:00,74.0,61.0,29.87,NNW,328,2.0,6.0,64,0.00,,,0.01,,2013-04-01 18:33:00,
2013-04-01 14:43:00,74.0,61.0,29.87,NNW,328,2.0,6.0,64,0.00,,,0.01,,2013-04-01 18:43:00,
2013-04-01 14:52:00,74.0,62.0,29.86,North,354,1.0,3.0,66,0.00,,,0.01,,2013-04-01 18:52:00,
2013-04-01 15:04:00,73.0,61.0,29.85,WSW,242,1.0,3.0,67,0.00,,,0.01,,2013-04-01 19:04:00,
2013-04-01 15:13:00,73.0,61.0,29.85,WSW,242,1.0,3.0,67,0.00,,,0.01,,2013-04-01 19:13:00,
2013-04-01 15:23:00,77.0,62.0,29.85,SW,236,3.0,7.0,59,0.00,,,0.01,,2013-04-01 19:23:00,
2013-04-01 15:32:00,78.0,62.0,29.84,SW,234,2.0,5.0,57,0.00,,,0.01,,2013-04-01 19:32:00,
2013-04-01 15:42:00,78.0,62.0,29.84,SW,234,2.0,5.0,57,0.00,,,0.01,,2013-04-01 19:42:00,
2013-04-01 15:53:00,80.0,62.0,29.84,WSW,244,2.0,6.0,54,0.00,,,0.01,,2013-04-01 19:53:00,
2013-04-01 16:02:00,80.0,61.0,29.83,West,262,3.0,6.0,53,0.00,,,0.01,,2013-04-01 20:02:00,
2013-04-01 16:13:00,80.0,61.0,29.83,West,262,3.0,6.0,53,0.00,,,0.01,,2013-04-01 20:13:00,
2013-04-01 16:23:00,79.0,61.0,29.83,SW,230,2.0,7.0,54,0.00,,,0.01,,2013-04-01 20:23:00,
2013-04-01 16:33:00,80.0,61.0,29.83,WNW,293,2.0,7.0,52,0.00,,,0.01,,2013-04-01 20:33:00,
2013-04-01 16:43:00,80.0,61.0,29.83,WNW,293,2.0,7.0,52,0.00,,,0.01,,2013-04-01 20:43:00,
2013-04-01 16:52:00,78.0,60.0,29.83,SW,234,1.0,6.0,54,0.00,,,0.01,,2013-04-01 20:52:00,
2013-04-01 17:02:00,77.0,60.0,29.83,NNW,337,3.0,7.0,56,0.00,,,0.01,,2013-04-01 21:02:00,
2013-04-01 17:12:00,77.0,60.0,29.83,NNW,337,3.0,7.0,56,0.00,,,0.01,,2013-04-01 21:12:00,
2013-04-01 17:23:00,77.0,61.0,29.83,SSW,200,1.0,3.0,57,0.00,,,0.01,,2013-04-01 21:23:00,
2013-04-01 17:33:00,76.0,60.0,29.83,SSE,159,1.0,5.0,57,0.00,,,0.01,,2013-04-01 21:33:00,
2013-04-01 17:43:00,76.0,60.0,29.83,SSE,159,1.0,5.0,57,0.00,,,0.01,,2013-04-01 21:43:00,
2013-04-01 17:53:00,76.0,59.0,29.83,NW,304,2.0,10.0,56,0.00,,,0.01,,2013-04-01 21:53:00,
2013-04-01 18:03:00,76.0,58.0,29.83,West,272,2.0,6.0,54,0.00,,,0.01,,2013-04-01 22:03:00,
2013-04-01 18:13:00,76.0,58.0,29.83,West,272,2.0,6.0,54,0.00,,,0.01,,2013-04-01 22:13:00,
2013-04-01 18:23:00,75.0,57.0,29.83,WSW,246,2.0,5.0,54,0.00,,,0.01,,2013-04-01 22:23:00,
2013-04-01 18:33:00,75.0,57.0,29.83,NW,326,2.0,6.0,54,0.00,,,0.01,,2013-04-01 22:33:00,
2013-04-01 18:43:00,75.0,57.0,29.83,NW,326,2.0,6.0,54,0.00,,,0.01,,2013-04-01 22:43:00,
2013-04-01 18:52:00,74.0,57.0,29.84,SSW,208,1.0,3.0,55,0.00,,,0.01,,2013-04-01 22:52:00,
2013-04-01 19:02:00,74.0,57.0,29.85,NNE,27,1.0,3.0,56,0.00,,,0.01,,2013-04-01 23:02:00,
2013-04-01 19:12:00,74.0,57.0,29.85,NNE,27,1.0,3.0,56,0.00,,,0.01,,2013-04-01 23:12:00,
2013-04-01 19:23:00,73.0,57.0,29.85,NNW,336,0.0,2.0,58,0.00,,,0.01,,2013-04-01 23:23:00,
2013-04-01 19:32:00,72.0,56.0,29.85,NNW,342,1.0,5.0,58,0.00,,,0.01,,2013-04-01 23:32:00,
2013-04-01 19:43:00,72.0,56.0,29.85,NNW,342,1.0,5.0,58,0.00,,,0.01,,2013-04-01 23:43:00,
2013-04-01 19:53:00,71.0,56.0,29.86,NW,305,0.0,2.0,60,0.00,,,0.01,,2013-04-01 23:53:00,
2013-04-01 20:03:00,71.0,56.0,29.86,NW,305,0.0,2.0,60,0.00,,,0.01,,2013-04-02 00:03:00,
2013-04-01 20:12:00,71.0,56.0,29.86,NW,305,0.0,2.0,60,0.00,,,0.01,,2013-04-02 00:12:00,
2013-04-01 20:22:00,68.0,56.0,29.86,NW,304,0.0,0.0,66,0.00,,,0.01,,2013-04-02 00:22:00,
2013-04-01 20:33:00,67.0,56.0,29.86,NW,305,0.0,0.0,68,0.00,,,0.01,,2013-04-02 00:33:00,
2013-04-01 20:43:00,67.0,56.0,29.86,NW,305,0.0,0.0,68,0.00,,,0.01,,2013-04-02 00:43:00,
2013-04-01 20:53:00,65.0,56.0,29.87,NW,305,0.0,0.0,72,0.00,,,0.01,,2013-04-02 00:53:00,
2013-04-01 21:02:00,65.0,56.0,29.87,NW,305,0.0,0.0,73,0.00,,,0.01,,2013-04-02 01:02:00,
2013-04-01 21:12:00,65.0,56.0,29.87,NW,305,0.0,0.0,73,0.00,,,0.01,,2013-04-02 01:12:00,
2013-04-01 21:22:00,63.0,56.0,29.87,NW,305,0.0,0.0,77,0.00,,,0.01,,2013-04-02 01:22:00,
2013-04-01 21:32:00,63.0,56.0,29.88,South,169,0.0,1.0,79,0.00,,,0.01,,2013-04-02 01:32:00,
2013-04-01 21:43:00,63.0,56.0,29.88,South,169,0.0,1.0,79,0.00,,,0.01,,2013-04-02 01:43:00,
2013-04-01 21:53:00,62.0,56.0,29.88,South,169,0.0,1.0,81,0.00,,,0.01,,2013-04-02 01:53:00,
2013-04-01 22:03:00,62.0,56.0,29.88,South,169,0.0,1.0,81,0.00,,,0.01,,2013-04-02 02:03:00,
2013-04-01 22:12:00,62.0,56.0,29.88,South,169,0.0,1.0,81,0.00,,,0.01,,2013-04-02 02:12:00,
2013-04-01 22:22:00,61.0,57.0,29.90,SSE,156,0.0,1.0,87,0.00,,,0.01,,2013-04-02 02:22:00,
2013-04-01 22:33:00,60.0,56.0,29.90,SSE,156,0.0,0.0,88,0.00,,,0.01,,2013-04-02 02:33:00,
2013-04-01 22:43:00,60.0,56.0,29.90,SSE,156,0.0,0.0,88,0.00,,,0.01,,2013-04-02 02:43:00,
2013-04-01 22:53:00,60.0,57.0,29.91,SSE,156,0.0,2.0,89,0.00,,,0.01,,2013-04-02 02:53:00,
2013-04-01 23:02:00,59.0,56.0,29.91,SSE,156,0.0,1.0,90,0.00,,,0.01,,2013-04-02 03:02:00,
2013-04-01 23:13:00,59.0,56.0,29.91,SSE,156,0.0,1.0,90,0.00,,,0.01,,2013-04-02 03:13:00,
2013-04-01 23:22:00,59.0,56.0,29.92,SSE,156,0.0,1.0,91,0.00,,,0.01,,2013-04-02 03:22:00,
2013-04-01 23:33:00,59.0,57.0,29.92,SSE,156,0.0,1.0,92,0.00,,,0.01,,2013-04-02 03:33:00,
2013-04-01 23:43:00,59.0,57.0,29.92,SSE,156,0.0,1.0,92,0.00,,,0.01,,2013-04-02 03:43:00,
2013-04-01 23:53:00,58.0,56.0,29.92,SSE,156,0.0,0.0,92,0.00,,,0.01,,2013-04-02 03:53:00,